Location: �clusier
(49.9361°N, 2.7869°E)
Time: 06:27:38
(UTC+00:00)

Cosmos 2016 Rocket - Pass Details

Date: 28 October 2021
Orbit: 947 x 1000 km, 83.0° (Epoch: 05 December)

Event Time Altitude Azimuth Distance (km) Brightness Sun altitude
Rises 19:06:06 0° 181° (S) 3,648 6.9 -25.2°
Reaches altitude 10° 19:08:36 10° 179° (S) 2,698 6.2 -25.6°
Maximum altitude 19:14:45 74° 96° (E) 998 3.8 -26.6°
Drops below altitude 10° 19:20:52 10° 13° (NNE) 2,688 6.3 -27.5°
Sets 19:23:21 0° 11° (NNE) 3,634 7.0 -27.9°
